Other Surface Observations
Issued by NWS Tucson, AZ

Home | Current Version | Previous Version | Text Only | Print | Product List | Glossary On
Versions: 1 2 3 4 5 6 7 8 9 10 11 12 13 14 15 16 17 18 19 20 21 22 23 24 25 26 27 28 29 30 31 32 33 34 35 36 37 38 39 40 41 42 43 44 45 46 47 48 49 50
974
SXUS55 KTWC 221715
OSOTWC

WEATHER ROUNDUP FOR SOUTHEAST ARIZONA
NATIONAL WEATHER SERVICE TUCSON AZ
1015 AM MST SUN OCT 22 2017

AZZ504>506-514-221815-
LOCATION       SKY/WX    TMP DP  RH WIND       PRES   REMARKS
TUCSON         SUNNY     73  37  27 VRB3      30.25S
DAVIS-MONTHAN  SUNNY     73  37  27 VRB1      30.23S
CHILDRENS PARK N/A      N/A N/A  40 SE3               PIMA CO DEQ
ALVERNON/22ND  N/A       66 N/A N/A E2                PIMA CO DEQ
CHERRY/GLENN   N/A       65 N/A N/A NE0               PIMA CO DEQ
TANGERINE      N/A       66 N/A N/A S4                PIMA CO DEQ
CONTL RANCH    N/A       64  39  40 SE5               PIMA CO DEQ
GRANT/1ST      N/A       63  38  40 SE2               PIMA CO DEQ
CRAYCROFT/22ND N/A       65  38  37 N/A               PIMA CO DEQ
GOLFLINKS/KOLB N/A       67  38  35 E1                PIMA CO DEQ
AJO/12TH       N/A       63  38  40 S2                PIMA CO DEQ
FAIRGROUNDS    N/A       69 N/A N/A E7                PIMA CO DEQ
SAGUARO        N/A       72  41  32 NW2               *SABINO CYN
SAN CARLOS     N/A       67  19  16 SW3               *SAN CARLOS
GREEN VALLEY   N/A       66  38  36 S8                PIMA CO DEQ
HORSE CAMP CYN N/A       67  25  20 E5G11             *ARAVAIPA CYN
RINCON MTNS    N/A       61  17  18 E5G13             *NR MANNING CAMP
$$

AZZ509>511-221815-
LOCATION       SKY/WX    TMP DP  RH WIND       PRES   REMARKS
SAFFORD        SUNNY     72  14  11 SE10      30.31S
STRAY HORSE    N/A       61  11  14 E2                *
TRAIL CABIN    N/A       62  11  13 NE5G10            *N OF GRANVILLE
BLACK HILLS    NOT AVBL
DRY LAKE       N/A       64  12  13 SE3               *NATANES MTNS
NOON CREEK     N/A       69  19  15 NE5G10            *PINALENO MTNS
COLUMBINE      N/A       53  11  18 CALM              *PINALENO MTNS
GUTHRIE        N/A       58  16  19 E8G14             *SW OF GUTHRIE
$$

AZZ502-503-513-221815-
LOCATION       SKY/WX    TMP DP  RH WIND       PRES   REMARKS
NOGALES        SUNNY     72  34  24 W3        30.28S
SELLS          N/A       75  38  26 NE3               *
SASABE         N/A       71  40  32 NE3               *ALTAR VLY
HOPKINS        N/A       68  24  19 SE5G17            *SANTA RITA MTNS
CARR CYN       N/A       69  24  18 E5G11             *W OF HEREFORD
$$

AZZ507-508-512-221815-
LOCATION       SKY/WX    TMP DP  RH WIND       PRES   REMARKS
SIERRA VISTA   SUNNY     73  27  18 E7        30.34S
DOUGLAS        SUNNY     70  29  21 CALM      30.32S
EMPIRE MTNS    NOT AVBL
MULESHOE RANCH N/A       72  18  13 E6G11             *PRESERVE
HEADQUARTERS   N/A       70  23  17 W3                *CHIRICAHUA MTNS
$$

.............................NOTES.............................
THIS IS AN AUTOMATED COLLECTIVE WITH MINIMAL QUALITY CONTROL.
PIMA CO DEQ SITES HAVE NONSTANDARD WIND SENSOR HEIGHTS.
PIMA CO DEQ SITES DO NOT REPORT WIND GUSTS.
* INDICATES WIND SENSORS LOCATED AT 20 FEET INSTEAD OF 33 FEET.
..............................KEY..............................
SKY/WX - SKY CONDITION/WEATHER
TMP    - TEMPERATURE IN FAHRENHEIT
DP     - DEWPOINT IN FAHRENHEIT
RH     - RELATIVE HUMIDITY IN PERCENT
WIND   - DIRECTION AND SPEED IN MILES PER HOUR (MPH)
VRB    - VARIABLE WIND DIRECTION
PRES   - MEAN SEA LEVEL PRESSURE IN INCHES OF MERCURY
         F - FALLING PRESSURE   R - RISING PRESSURE
         S - STEADY PRESSURE
VSB    - VISIBILITY IN MILES
HX     - HEAT INDEX IN FAHRENHEIT
WCI    - WIND CHILL INDEX IN FAHRENHEIT
N/A    - NOT AVAILABLE
AFB    - AIR FORCE BASE
         DAVIS-MONTHAN IS DAVIS-MONTHAN AIR FORCE BASE
CYN    - CANYON
MTNS   - MOUNTAINS
NCA    - NATIONAL CONSERVATION AREA
NR     - NEAR
VLY    - VALLEY
CONTL  - CONTINENTAL
PIMA CO DEQ - PIMA COUNTY DEPT OF ENVIRONMENTAL QUALITY



USA.gov is the U.S. government's official web portal to all federal, state and local government web resources and services.